Location: Mentone
(34.5413°N, 85.5351°W)
Time: 13:45:24
(UTC-05:00)

Cosmos 2150 Rocket - Visible Passes

Search period start: 17 October 2017 00:00
Search period end: 27 October 2017 00:00
Orbit: 749 x 808 km, 74.0° (Epoch: 16 October)

Date Brightness Start Highest point End Pass type
(mag) Time Alt. Az. Time Alt. Az. Time Alt. Az.
17 Oct 6.6 03:29:46 15° E 03:29:46 15° E 03:32:20 10° ENE visible
17 Oct 4.1 05:10:20 46° WSW 05:11:15 52° WNW 05:16:24 10° N visible
18 Oct 4.2 04:38:19 61° NNE 04:38:19 61° NNE 04:42:41 10° NNE visible
19 Oct 5.6 04:06:05 29° NE 04:06:05 29° NE 04:08:44 10° NNE visible
19 Oct 5.6 05:46:38 15° NW 05:46:38 15° NW 05:49:21 10° NNW visible
20 Oct 6.7 03:33:41 14° NE 03:33:41 14° NE 03:34:32 10° NE visible
20 Oct 5.6 05:14:13 20° NNW 05:14:13 20° NNW 05:16:28 10° N visible
21 Oct 5.9 04:41:41 18° N 04:41:41 18° N 04:43:07 10° N visible
22 Oct 6.5 04:09:03 12° N 04:09:03 12° N 04:09:31 10° NNE visible
